This is the latest recevied weather packets stored in our database for station/object N7IGG. If no packets are shown the sender has not sent any weather packets the latest 10 day(s).
| Time | Temp. | Humidity | Pressure | Rain* | Wind** | Luminosity | Snow |
|---|---|---|---|---|---|---|---|
| 1777750339 | 16.67° C | 78% | 1016.3 hPa | 0 mm | - | 630 W/m² | - |
| 1777750038 | 16.67° C | 78% | 1016.3 hPa | 0 mm | - | 569 W/m² | - |
| 1777749736 | 16.67° C | 78% | 1016.5 hPa | 0 mm | - | 630 W/m² | - |
| 1777749433 | 16.67° C | 79% | 1016.5 hPa | 0 mm | - | 609 W/m² | - |
| 1777749131 | 16.67° C | 79% | 1016.5 hPa | 0 mm | - | 564 W/m² | - |
| 1777748828 | 16.67° C | 79% | 1016.5 hPa | 0 mm | - | 635 W/m² | - |
| 1777748526 | 16.11° C | 79% | 1016.6 hPa | 0 mm | - | 582 W/m² | - |
| 1777748225 | 16.11° C | 80% | 1016.6 hPa | 0 mm | - | 582 W/m² | - |
| 1777747922 | 15.56° C | 80% | 1016.5 hPa | 0 mm | - | 603 W/m² | - |
| 1777747618 | 15.56° C | 81% | 1016.7 hPa | 0 mm | - | 560 W/m² | - |
| 1777747319 | 15.56° C | 81% | 1016.7 hPa | 0 mm | - | 250 W/m² | - |
| 1777747016 | 15.56° C | 82% | 1016.6 hPa | 0 mm | - | 299 W/m² | - |
| 1777746712 | 15.56° C | 82% | 1016.6 hPa | 0 mm | - | 71 W/m² | - |
| 1777746407 | 15.56° C | 82% | 1016.6 hPa | 0 mm | - | 520 W/m² | - |
| 1777746102 | 15.56° C | 82% | 1016.7 hPa | 0 mm | - | 76 W/m² | - |
| 1777745801 | 15.56° C | 83% | 1016.7 hPa | 0 mm | - | 184 W/m² | - |
| 1777745499 | 15.56° C | 84% | 1016.8 hPa | 0 mm | - | 75 W/m² | - |
| 1777745196 | 15° C | 84% | 1016.8 hPa | 0 mm | - | 165 W/m² | - |
| 1777744893 | 15° C | 86% | 1016.7 hPa | 0 mm | - | 77 W/m² | - |
| 1777744592 | 15° C | 87% | 1016.8 hPa | 0 mm | - | 75 W/m² | - |
| 1777744293 | 14.44° C | 89% | 1016.9 hPa | 0 mm | - | 72 W/m² | - |
| 1777743991 | 14.44° C | 90% | 1016.9 hPa | 0 mm | - | 72 W/m² | - |
| 1777743687 | 14.44° C | 91% | 1017.1 hPa | 0 mm | - | 69 W/m² | - |
| 1777743384 | 13.89° C | 92% | 1017.2 hPa | 0 mm | - | 78 W/m² | - |
| 1777743082 | 13.33° C | 93% | 1017 hPa | 0 mm | - | 79 W/m² | - |
* Rain latest hour (hover to see other rain measurements)
** Current wind speed in m/s (hover to see current wind gust speed)